Home   Weather   Buenos Aires   Past weeks

Flag for Argentina Past Weather in Buenos Aires, Argentina — Yesterday and Last 2 Weeks

Now
79 °F

Clear.


Feels Like: 81 °F
Forecast: 73 / 84 °F
Wind: 13 mph from North

Location: Buenos Aires Airport

Current Time: Jan 20, 2017 at 7:04:46 am

Latest Report: Jan 20, 2017 at 6:00 am


Visibility: 10 mi

Pressure: 30.04 "Hg

Humidity: 70%

Dew Point: 68 °F

Location of Buenos AiresLocation

Past Weather in Buenos Aires — Graph

°F

Buenos Aires Temperature Yesterday

Maximum temperature yesterday: 88 °F (at 6:00 pm)
Minimum temperature yesterday: 75 °F (at 4:00 am)
Average temperature yesterday: 81 °F

High & Low Weather Summary for the Past Weeks

 TemperatureHumidityPressure
High91 °F (Jan 17, 3:00 pm)94% (Jan 9, 7:00 am)30.09 "Hg (Jan 9, 7:00 am)
Low64 °F (Jan 10, 7:00 am)21% (Jan 5, 9:00 am)29.53 "Hg (Jan 9, 6:00 pm)
Average77 °F66%29.82 "Hg
* Reported Jan 5 6:00 am — Jan 20 6:00 am, Buenos Aires, Weather by CustomWeather, © 2017

Note: Actual official high and low records may vary slightly from our data, if they occured in-between our weather recording intervals... More about our weather records

Advertising

Buenos Aires Weather History for the Previous 24 Hours

Scroll right to see more
 ConditionsComfort  
Time TempWeatherWind HumidityBarometerVisibility
6:00 am
Fri, Jan 20
79 °FClear.13 mph70%30.04 "Hg10 mi
5:00 am79 °FClear.16 mph65%29.98 "Hg10 mi
4:00 am81 °FClear.17 mph62%29.98 "Hg10 mi
3:00 am81 °FClear.14 mph62%29.98 "Hg10 mi
2:00 am81 °FClear.12 mph66%29.98 "Hg10 mi
1:00 am82 °FClear.15 mph55%29.98 "Hg10 mi
12:00 am82 °FPassing clouds.8 mph66%29.98 "HgN/A
11:00 pm
Thu, Jan 19
84 °FPassing clouds.8 mph66%29.98 "HgN/A
10:00 pm84 °FPassing clouds.5 mph79%29.95 "HgN/A
9:00 pm86 °FPassing clouds.6 mph70%29.92 "HgN/A
8:00 pm86 °FPassing clouds.6 mph70%29.92 "HgN/A
7:00 pm86 °FPassing clouds.7 mph66%29.89 "HgN/A
6:00 pm88 °FScattered clouds.6 mph66%29.89 "HgN/A
5:00 pm86 °FScattered clouds.8 mph70%29.92 "HgN/A
4:00 pm84 °FScattered clouds.8 mph74%29.95 "HgN/A
3:00 pm86 °FPartly sunny.8 mph70%29.95 "HgN/A
2:00 pm84 °FScattered clouds.9 mph70%29.98 "HgN/A
1:00 pm82 °FPassing clouds.9 mph66%29.98 "HgN/A
12:00 pm82 °FPassing clouds.10 mph66%30.01 "HgN/A
11:00 am81 °FSunny.12 mph66%30.01 "Hg10 mi
10:00 am79 °FSunny.15 mph58%30.01 "Hg10 mi
9:00 am77 °FSunny.14 mph61%30.01 "Hg10 mi
8:00 am75 °FSunny.16 mph69%30.01 "Hg10 mi
7:00 am75 °FSunny.17 mph69%29.98 "Hg10 mi
Weather by CustomWeather, © 2017

See weather overviewHow to use our weather pages